BAW607M LIPZ-EGLL

Flight info

Callsign BAW607M
Flight time N/A
Altitude 35000
Route ROKIB DCT RESIA DCT ELMUR DCT RIPUS DCT DITON DCT HOC DCT LUL DCT RLP DCT ROTSI DCT KOTUN DCT NINAL DCT ABNUR DCT DIMAL DCT ALESO
Aircraft A320/M-SDE3FGHIRWY/LB1

Departure

Time 2026-04-28 00:31
Airport Venice Marco Polo Airport (LIPZ)

Arrival

Time N/A
Airport London Heathrow Airport (EGLL)
Time Latitude Longitude Altitude Speed Heading
2026-04-28 00:17 45.50115 12.33992 15 ft 0 kts 312°
2026-04-28 00:19 45.50100 12.34018 18 ft 4 kts 304°
2026-04-28 00:19 45.50087 12.34052 18 ft 4 kts 283°
2026-04-28 00:19 45.50088 12.34086 17 ft 3 kts 228°
2026-04-28 00:19 45.50093 12.34094 16 ft 0 kts 222°
2026-04-28 00:25 45.50086 12.34085 17 ft 3 kts 222°
2026-04-28 00:25 45.50067 12.34061 17 ft 5 kts 222°
2026-04-28 00:26 45.50038 12.34022 15 ft 7 kts 222°
2026-04-28 00:26 45.49999 12.33972 15 ft 8 kts 222°
2026-04-28 00:26 45.49951 12.33911 15 ft 10 kts 222°
2026-04-28 00:26 45.49892 12.33838 15 ft 12 kts 221°
2026-04-28 00:27 45.49826 12.33754 16 ft 13 kts 221°
2026-04-28 00:27 45.49763 12.33675 16 ft 12 kts 219°
2026-04-28 00:27 45.49693 12.33618 18 ft 11 kts 207°
2026-04-28 00:27 45.49635 12.33553 17 ft 10 kts 221°
2026-04-28 00:28 45.49577 12.33513 16 ft 10 kts 171°
2026-04-28 00:28 45.49523 12.33578 16 ft 9 kts 133°
2026-04-28 00:28 45.49505 12.33607 16 ft 0 kts 132°
2026-04-28 00:29 45.49504 12.33608 16 ft 1 kts 132°
2026-04-28 00:29 45.49493 12.33625 16 ft 4 kts 132°
2026-04-28 00:29 45.49469 12.33662 16 ft 6 kts 132°
2026-04-28 00:30 45.49434 12.33721 15 ft 9 kts 123°
2026-04-28 00:30 45.49448 12.33816 16 ft 14 kts 49°
2026-04-28 00:30 45.49661 12.34094 13 ft 75 kts 42°
2026-04-28 00:30 45.50196 12.34783 15 ft 129 kts 42°
2026-04-28 00:31 45.50970 12.35782 99 ft 162 kts 43°
2026-04-28 00:31 45.51776 12.36854 692 ft 159 kts 44°
2026-04-28 00:31 45.52585 12.37963 1277 ft 161 kts 44°
2026-04-28 00:31 45.53329 12.39273 1569 ft 182 kts 65°
2026-04-28 00:32 45.53614 12.41120 1881 ft 201 kts 92°
2026-04-28 00:32 45.53408 12.43128 2468 ft 206 kts 99°
2026-04-28 00:32 45.53179 12.45215 2988 ft 223 kts 98°
2026-04-28 00:32 45.52941 12.47487 3487 ft 238 kts 98°
2026-04-28 00:33 45.52678 12.49850 4243 ft 243 kts 104°
2026-04-28 00:33 45.51854 12.51938 4984 ft 247 kts 139°
2026-04-28 00:33 45.50316 12.52977 5723 ft 251 kts 175°
2026-04-28 00:33 45.48599 12.52592 6506 ft 253 kts 201°
2026-04-28 00:34 45.47087 12.51324 7266 ft 256 kts 228°
2026-04-28 00:34 45.46312 12.49077 8010 ft 258 kts 263°
2026-04-28 00:34 45.46456 12.46453 8467 ft 277 kts 282°
2026-04-28 00:34 45.46974 12.43767 9119 ft 284 kts 287°
2026-04-28 00:35 45.47611 12.41074 9874 ft 288 kts 289°
2026-04-28 00:35 45.48282 12.38355 10511 ft 296 kts 289°
2026-04-28 00:35 45.48980 12.35475 10697 ft 319 kts 288°
2026-04-28 00:35 45.49705 12.32373 10826 ft 341 kts 288°
2026-04-28 00:36 45.50445 12.29085 11239 ft 352 kts 287°
2026-04-28 00:36 45.51180 12.25738 11866 ft 356 kts 287°
2026-04-28 00:36 45.51914 12.22347 12543 ft 359 kts 287°
2026-04-28 00:36 45.52647 12.18936 13242 ft 361 kts 287°
2026-04-28 00:37 45.53389 12.15500 13910 ft 363 kts 287°
2026-04-28 00:37 45.54139 12.12047 14502 ft 366 kts 287°
2026-04-28 00:37 45.54895 12.08569 15078 ft 369 kts 287°
2026-04-28 00:37 45.55657 12.05067 15641 ft 371 kts 287°
2026-04-28 00:38 45.56426 12.01536 16213 ft 374 kts 287°
2026-04-28 00:38 45.57389 11.98035 16791 ft 377 kts 297°
2026-04-28 00:38 45.58841 11.94912 17374 ft 380 kts 309°
2026-04-28 00:38 45.60745 11.92273 17962 ft 384 kts 321°
2026-04-28 00:39 45.63026 11.90255 18536 ft 389 kts 333°
2026-04-28 00:39 45.65483 11.88581 19076 ft 392 kts 333°
2026-04-28 00:39 45.67949 11.86904 19645 ft 394 kts 333°
2026-04-28 00:39 45.70424 11.85214 20217 ft 396 kts 332°
2026-04-28 00:40 45.72913 11.83510 20757 ft 398 kts 332°
2026-04-28 00:40 45.75412 11.81790 21275 ft 400 kts 332°
2026-04-28 00:40 45.77928 11.80049 21764 ft 402 kts 332°
2026-04-28 00:40 45.80450 11.78301 22234 ft 404 kts 332°
2026-04-28 00:41 45.82984 11.76541 22684 ft 406 kts 332°
2026-04-28 00:41 45.85539 11.74769 23158 ft 408 kts 332°
2026-04-28 00:41 45.88102 11.72995 23617 ft 411 kts 332°
2026-04-28 00:41 45.90599 11.71008 23997 ft 410 kts 323°
2026-04-28 00:42 45.92802 11.68431 24365 ft 409 kts 313°
2026-04-28 00:42 45.94647 11.65325 24695 ft 408 kts 303°
2026-04-28 00:42 45.96075 11.61809 25049 ft 409 kts 295°
2026-04-28 00:42 45.97316 11.58122 25394 ft 410 kts 295°
2026-04-28 00:43 45.98563 11.54424 25738 ft 412 kts 295°
2026-04-28 00:43 45.99817 11.50711 26080 ft 414 kts 295°
2026-04-28 00:43 46.01079 11.46979 26419 ft 415 kts 295°
2026-04-28 00:43 46.02342 11.43235 26766 ft 417 kts 295°
2026-04-28 00:44 46.03609 11.39470 27123 ft 419 kts 295°
2026-04-28 00:44 46.04877 11.35698 27546 ft 418 kts 295°
2026-04-28 00:44 46.06141 11.31934 28040 ft 416 kts 295°
2026-04-28 00:44 46.07395 11.28186 28571 ft 414 kts 295°
2026-04-28 00:45 46.08642 11.24451 29085 ft 412 kts 295°
2026-04-28 00:45 46.09881 11.20737 29602 ft 410 kts 295°
2026-04-28 00:45 46.11111 11.17044 30126 ft 409 kts 295°
2026-04-28 00:45 46.12337 11.13354 30571 ft 407 kts 295°
2026-04-28 00:46 46.13557 11.09683 31023 ft 405 kts 295°
2026-04-28 00:46 46.14774 11.06022 31470 ft 403 kts 295°
2026-04-28 00:46 46.15996 11.02341 31873 ft 402 kts 295°
2026-04-28 00:46 46.17199 10.98708 32318 ft 400 kts 294°
2026-04-28 00:47 46.18396 10.95088 32714 ft 399 kts 294°
2026-04-28 00:47 46.19584 10.91487 33130 ft 397 kts 294°
2026-04-28 00:47 46.20772 10.87887 33569 ft 396 kts 294°
2026-04-28 00:47 46.21953 10.84303 34018 ft 394 kts 294°
2026-04-28 00:48 46.23127 10.80737 34413 ft 393 kts 294°
2026-04-28 00:48 46.24296 10.77183 34715 ft 391 kts 294°
2026-04-28 00:48 46.25458 10.73633 35006 ft 391 kts 294°
2026-04-28 00:48 46.26620 10.70075 35150 ft 392 kts 294°
2026-04-28 00:49 46.27792 10.66483 35172 ft 399 kts 294°
2026-04-28 00:49 46.30176 10.59145 35155 ft 405 kts 294°
2026-04-28 00:50 46.32576 10.51765 35151 ft 406 kts 294°
2026-04-28 00:50 46.34978 10.44369 35145 ft 406 kts 294°
2026-04-28 00:51 46.37367 10.36984 35146 ft 406 kts 294°
2026-04-28 00:51 46.39755 10.29579 35151 ft 405 kts 293°
2026-04-28 00:52 46.42130 10.22163 35163 ft 406 kts 293°
2026-04-28 00:52 46.44521 10.14694 35177 ft 406 kts 293°
2026-04-28 00:53 46.46894 10.07264 35195 ft 406 kts 294°
2026-04-28 00:53 46.50141 10.00554 35210 ft 410 kts 309°
2026-04-28 00:54 46.53929 9.94359 35205 ft 410 kts 308°
2026-04-28 00:54 46.57698 9.88123 35205 ft 410 kts 308°
2026-04-28 00:55 46.61461 9.81894 35182 ft 410 kts 308°
2026-04-28 00:55 46.65235 9.75653 35166 ft 411 kts 308°
2026-04-28 00:56 46.69007 9.69395 35154 ft 411 kts 308°
2026-04-28 00:56 46.72771 9.63134 35135 ft 411 kts 308°
2026-04-28 00:57 46.76535 9.56863 35122 ft 411 kts 308°
2026-04-28 00:57 46.79688 9.51600 35106 ft 411 kts 308°
2026-04-28 00:58 46.83450 9.45309 35103 ft 411 kts 307°
2026-04-28 00:58 46.87205 9.39010 35102 ft 411 kts 307°
2026-04-28 00:59 46.90951 9.32712 35099 ft 411 kts 307°
2026-04-28 00:59 46.94698 9.26401 35100 ft 411 kts 307°
2026-04-28 01:00 46.98436 9.20086 35094 ft 410 kts 307°
2026-04-28 01:00 47.02166 9.13758 35101 ft 410 kts 307°
2026-04-28 01:01 47.05893 9.07418 35115 ft 410 kts 307°
2026-04-28 01:01 47.09582 9.01157 35108 ft 408 kts 307°
2026-04-28 01:02 47.11435 8.98003 35111 ft 408 kts 307°
2026-04-28 01:02 47.14448 8.92755 35120 ft 406 kts 302°
2026-04-28 01:03 47.17030 8.85513 35122 ft 399 kts 288°
2026-04-28 01:03 47.18968 8.77868 35123 ft 399 kts 288°
2026-04-28 01:04 47.20916 8.70220 35128 ft 399 kts 288°
2026-04-28 01:04 47.22854 8.62579 35127 ft 399 kts 288°
2026-04-28 01:05 47.24783 8.54932 35125 ft 399 kts 288°
2026-04-28 01:05 47.26718 8.47274 35126 ft 399 kts 288°
2026-04-28 01:06 47.28640 8.39619 35125 ft 399 kts 288°
2026-04-28 01:06 47.30563 8.31958 35124 ft 398 kts 288°
2026-04-28 01:07 47.32478 8.24301 35121 ft 398 kts 287°
2026-04-28 01:07 47.34383 8.16636 35121 ft 398 kts 287°
2026-04-28 01:08 47.36292 8.08921 35126 ft 398 kts 287°
2026-04-28 01:08 47.38179 8.01261 35124 ft 398 kts 287°
2026-04-28 01:09 47.40064 7.93587 35123 ft 397 kts 287°
2026-04-28 01:09 47.41937 7.85911 35119 ft 397 kts 287°
2026-04-28 01:10 47.43807 7.78247 35115 ft 397 kts 287°
2026-04-28 01:10 47.45674 7.70575 35114 ft 397 kts 287°
2026-04-28 01:11 47.47290 7.62803 35110 ft 395 kts 281°
2026-04-28 01:11 47.48608 7.54927 35109 ft 395 kts 281°
2026-04-28 01:12 47.49924 7.47055 35107 ft 394 kts 281°
2026-04-28 01:12 47.51238 7.39175 35108 ft 394 kts 281°
2026-04-28 01:13 47.52546 7.31301 35109 ft 394 kts 281°
2026-04-28 01:13 47.54490 7.19484 35107 ft 394 kts 281°
2026-04-28 01:14 47.55776 7.11605 35104 ft 394 kts 281°
2026-04-28 01:14 47.57060 7.03713 35106 ft 394 kts 281°
2026-04-28 01:15 47.58346 6.95767 35108 ft 394 kts 281°
2026-04-28 01:15 47.59617 6.87867 35107 ft 394 kts 281°
2026-04-28 01:16 47.60880 6.79975 35108 ft 394 kts 281°
2026-04-28 01:16 47.62144 6.72064 35103 ft 394 kts 281°
2026-04-28 01:17 47.63401 6.64160 35104 ft 394 kts 281°
2026-04-28 01:17 47.64659 6.56261 35105 ft 394 kts 281°
2026-04-28 01:18 47.65902 6.48355 35107 ft 394 kts 281°
2026-04-28 01:18 47.67135 6.40440 35106 ft 393 kts 281°
2026-04-28 01:19 47.68367 6.32538 35109 ft 393 kts 281°
2026-04-28 01:19 47.69730 6.24678 35109 ft 394 kts 284°
2026-04-28 01:20 47.71420 6.16945 35112 ft 394 kts 286°
2026-04-28 01:20 47.73147 6.09240 35111 ft 393 kts 285°
2026-04-28 01:21 47.74803 6.01504 35115 ft 392 kts 285°
2026-04-28 01:21 47.76419 5.93768 35106 ft 392 kts 285°
2026-04-28 01:22 47.78031 5.86035 35105 ft 391 kts 285°
2026-04-28 01:22 47.79654 5.78263 35106 ft 391 kts 285°
2026-04-28 01:23 47.81267 5.70539 35115 ft 391 kts 284°
2026-04-28 01:23 47.82864 5.62823 35105 ft 390 kts 284°
2026-04-28 01:24 47.84459 5.55105 35106 ft 390 kts 284°
2026-04-28 01:24 47.86052 5.47385 35100 ft 390 kts 284°
2026-04-28 01:25 47.87630 5.39659 35104 ft 390 kts 284°
2026-04-28 01:25 47.89199 5.31940 35108 ft 390 kts 284°
2026-04-28 01:26 47.91248 5.24452 35107 ft 396 kts 297°
2026-04-28 01:26 47.94801 5.18074 35108 ft 403 kts 306°
2026-04-28 01:27 47.98569 5.11881 35105 ft 403 kts 306°
2026-04-28 01:27 48.02333 5.05663 35106 ft 404 kts 306°
2026-04-28 01:28 48.06101 4.99418 35106 ft 405 kts 306°
2026-04-28 01:28 48.09868 4.93148 35103 ft 406 kts 306°
2026-04-28 01:29 48.13661 4.86857 35101 ft 407 kts 306°
2026-04-28 01:29 48.16838 4.81564 35103 ft 408 kts 306°
2026-04-28 01:30 48.20631 4.75217 35099 ft 410 kts 306°
2026-04-28 01:30 48.24442 4.68841 35101 ft 411 kts 306°
2026-04-28 01:31 48.28262 4.62436 35104 ft 412 kts 306°
2026-04-28 01:31 48.32086 4.56003 35105 ft 413 kts 306°
2026-04-28 01:32 48.35915 4.49547 35103 ft 414 kts 306°
2026-04-28 01:32 48.39742 4.43076 35106 ft 415 kts 306°
2026-04-28 01:33 48.43576 4.36573 35113 ft 415 kts 306°
2026-04-28 01:33 48.47413 4.30048 35118 ft 416 kts 307°
2026-04-28 01:34 48.51254 4.23515 35121 ft 417 kts 307°
2026-04-28 01:34 48.55124 4.16913 35126 ft 417 kts 307°
2026-04-28 01:35 48.58964 4.10342 35129 ft 418 kts 307°
2026-04-28 01:35 48.62816 4.03741 35130 ft 419 kts 307°
2026-04-28 01:36 48.66660 3.97126 35125 ft 419 kts 307°
2026-04-28 01:36 48.70508 3.90477 35130 ft 420 kts 307°
2026-04-28 01:37 48.74431 3.83903 35129 ft 422 kts 310°
2026-04-28 01:37 48.78642 3.77667 35128 ft 424 kts 312°
2026-04-28 01:38 48.82932 3.71508 35132 ft 425 kts 311°
2026-04-28 01:38 48.87169 3.65260 35128 ft 425 kts 311°
2026-04-28 01:39 48.91380 3.58946 35131 ft 425 kts 311°
2026-04-28 01:39 48.95580 3.52618 35134 ft 426 kts 311°
2026-04-28 01:40 48.99789 3.46276 35138 ft 426 kts 311°
2026-04-28 01:40 49.03318 3.40942 35140 ft 426 kts 311°
2026-04-28 01:41 49.07527 3.34579 35146 ft 426 kts 311°
2026-04-28 01:41 49.12452 3.27119 35151 ft 427 kts 311°
2026-04-28 01:42 49.16657 3.20724 35150 ft 427 kts 311°
2026-04-28 01:42 49.20867 3.14315 35156 ft 427 kts 311°
2026-04-28 01:43 49.25075 3.07891 35156 ft 427 kts 311°
2026-04-28 01:43 49.29276 3.01452 35161 ft 428 kts 311°
2026-04-28 01:44 49.33478 2.94990 35161 ft 428 kts 311°
2026-04-28 01:44 49.37676 2.88531 35169 ft 428 kts 311°
2026-04-28 01:45 49.41869 2.82064 35172 ft 427 kts 311°
2026-04-28 01:45 49.46062 2.75579 35176 ft 427 kts 311°
2026-04-28 01:46 49.50239 2.69098 35180 ft 427 kts 311°
2026-04-28 01:46 49.54404 2.62598 35180 ft 426 kts 311°
2026-04-28 01:47 49.58559 2.56104 35187 ft 425 kts 311°
2026-04-28 01:47 49.63037 2.50105 35186 ft 429 kts 319°
2026-04-28 01:48 49.67793 2.44533 35190 ft 429 kts 319°
2026-04-28 01:48 49.72537 2.38955 35193 ft 429 kts 319°
2026-04-28 01:49 49.77315 2.33339 35194 ft 428 kts 319°
2026-04-28 01:49 49.82054 2.27763 35199 ft 428 kts 319°
2026-04-28 01:50 49.86797 2.22148 35202 ft 428 kts 319°
2026-04-28 01:50 49.91528 2.16529 35208 ft 429 kts 319°
2026-04-28 01:51 49.96265 2.10888 35211 ft 429 kts 319°
2026-04-28 01:51 50.01000 2.05236 35209 ft 430 kts 319°
2026-04-28 01:52 50.05739 1.99578 35212 ft 430 kts 319°
2026-04-28 01:52 50.10486 1.93886 35216 ft 431 kts 319°
2026-04-28 01:53 50.15228 1.88166 35220 ft 431 kts 319°
2026-04-28 01:53 50.19700 1.81977 35217 ft 429 kts 313°
2026-04-28 01:54 50.23169 1.76709 35218 ft 430 kts 313°